Flag for U.S.A. Weather past 2 weeks in Cupertino, California, U.S.A.

Now
59 °F

Overcast.


Feels Like: 59 °F
Forecast: 50 / 62 °F
Wind: No wind

Location: Moffett Field


UV Index: 0 (Low)

Visibility: 10 mi


Pressure: 29.99 "Hg

Humidity: 81%

Dew point: 53 °F

Location of CupertinoLocation

Historic Weather in Cupertino

°F

Cupertino temperature yesterday

Maximum temperature yesterday: 67 °F (at 2:56 PM)
Minimum temperature yesterday: 53 °F (at 4:56 AM)
Average temperature yesterday: 60 °F

Past Weeks' High & Low Weather Summary

 TemperatureHumidityPressure
High80 °F (Apr 20, 3:56 PM)87% (Apr 11, 2:56 AM)30.17 "Hg (Apr 11, 2:56 AM)
Low50 °F (Apr 19, 6:56 AM)20% (Apr 20, 3:56 PM)29.82 "Hg (Apr 17, 5:56 AM)
Average60 °F66%30.01 "Hg
* Reported Apr 10 12:56 AM — Apr 25 12:56 AM, Cupertino, Weather by CustomWeather, © 2014

Note: Actual official high and low records may vary slightly from our data, if they occured in-between our weather recording intervals... More about our weather records

Advertising

Historic Weather Conditions — Data for Previous 24 hours

 ConditionsComfort  
Time TempWeatherWind HumidityBarometerVisibility
12:56 AM
Apr 25
59 °FOvercast.No wind81%29.99 "Hg10 mi
11:56 PM
Apr 24
59 °FLight rain. Mostly cloudy.No wind78%30.01 "Hg10 mi
10:56 PM60 °FOvercast.3 mph75%30.02 "Hg10 mi
9:56 PM60 °FOvercast.5 mph75%30.03 "Hg10 mi
8:56 PM60 °FPassing clouds.No wind72%30.02 "Hg10 mi
7:56 PM60 °FSunny.6 mph69%30.02 "Hg10 mi
6:56 PM62 °FSunny.9 mph65%30.02 "Hg10 mi
5:56 PM63 °FSunny.12 mph60%30.04 "Hg10 mi
4:56 PM66 °FSunny.14 mph54%30.04 "Hg10 mi
3:56 PM66 °FSunny.16 mph59%30.05 "Hg10 mi
2:56 PM67 °FSunny.16 mph55%30.07 "Hg10 mi
1:56 PM64 °FSunny.10 mph56%30.08 "Hg10 mi
12:56 PM65 °FSunny.12 mph56%30.10 "Hg10 mi
11:56 AM64 °FSunny.9 mph63%30.13 "Hg10 mi
10:56 AM63 °FSunny.12 mph65%30.14 "Hg10 mi
9:56 AM63 °FSunny.7 mph60%30.14 "Hg10 mi
8:56 AM60 °FPassing clouds.5 mph67%30.14 "Hg10 mi
7:56 AM56 °FPassing clouds.3 mph75%30.14 "Hg10 mi
6:56 AM53 °FClear.No wind86%30.12 "Hg10 mi
5:56 AM53 °FClear.3 mph77%30.11 "Hg10 mi
4:56 AM53 °FClear.No wind80%30.10 "Hg10 mi
3:56 AM54 °FClear.No wind77%30.11 "Hg10 mi
2:56 AM55 °FClear.No wind74%30.11 "Hg10 mi
1:56 AM55 °FClear.No wind74%30.11 "Hg10 mi
Weather by CustomWeather, © 2014

See weather overview